TimeCDT,TemperatureF,Dew PointF,Humidity,Sea Level PressureIn,VisibilityMPH,Wind Direction,Wind SpeedMPH,Gust SpeedMPH,PrecipitationIn,Events,Conditions,WindDirDegrees,DateUTC
12:53 AM,37.0,24.1,59,29.94,10.0,Calm,Calm,-,N/A,,Overcast,0,2012-11-01 05:53:00
1:53 AM,34.0,23.0,64,29.94,10.0,SSE,3.5,-,N/A,,Partly Cloudy,150,2012-11-01 06:53:00
2:53 AM,36.0,27.0,70,29.94,10.0,Calm,Calm,-,N/A,,Overcast,0,2012-11-01 07:53:00
3:53 AM,36.0,25.0,64,29.93,10.0,Calm,Calm,-,N/A,,Overcast,0,2012-11-01 08:53:00
4:53 AM,36.0,25.0,64,29.92,10.0,Calm,Calm,-,N/A,,Scattered Clouds,0,2012-11-01 09:53:00
5:53 AM,33.1,24.1,70,29.92,10.0,Calm,Calm,-,N/A,,Scattered Clouds,0,2012-11-01 10:53:00
7:53 AM,37.9,27.0,65,29.93,10.0,Calm,Calm,-,N/A,,Overcast,0,2012-11-01 12:53:00
8:53 AM,39.0,28.0,65,29.94,10.0,Calm,Calm,-,N/A,,Overcast,0,2012-11-01 13:53:00
9:53 AM,41.0,28.0,60,29.95,10.0,Calm,Calm,-,N/A,,Mostly Cloudy,0,2012-11-01 14:53:00
10:53 AM,46.9,28.0,48,29.95,10.0,NW,10.4,-,N/A,,Partly Cloudy,320,2012-11-01 15:53:00
11:53 AM,50.0,28.9,44,29.94,10.0,NW,15.0,-,N/A,,Clear,320,2012-11-01 16:53:00
12:53 PM,50.0,28.0,43,29.93,10.0,NNW,17.3,-,N/A,,Partly Cloudy,340,2012-11-01 17:53:00
1:53 PM,50.0,28.0,43,29.92,10.0,NNW,16.1,-,N/A,,Partly Cloudy,330,2012-11-01 18:53:00
2:53 PM,50.0,27.0,41,29.92,10.0,NW,13.8,-,N/A,,Partly Cloudy,320,2012-11-01 19:53:00
3:53 PM,46.9,26.1,44,29.92,10.0,North,18.4,-,N/A,,Partly Cloudy,350,2012-11-01 20:53:00
4:53 PM,46.0,26.1,46,29.93,10.0,North,10.4,-,N/A,,Mostly Cloudy,360,2012-11-01 21:53:00
5:53 PM,44.1,24.1,45,29.95,10.0,North,13.8,-,N/A,,Mostly Cloudy,360,2012-11-01 22:53:00
6:53 PM,43.0,24.1,47,29.98,10.0,North,12.7,-,N/A,,Mostly Cloudy,350,2012-11-01 23:53:00
7:53 PM,42.1,25.0,51,29.99,10.0,North,9.2,-,N/A,,Mostly Cloudy,350,2012-11-02 00:53:00
8:53 PM,35.1,24.1,64,30.00,10.0,North,6.9,-,N/A,,Clear,350,2012-11-02 01:53:00
9:53 PM,35.1,24.1,64,30.02,10.0,North,8.1,-,N/A,,Clear,360,2012-11-02 02:53:00
10:53 PM,32.0,24.1,73,30.03,10.0,North,6.9,-,N/A,,Clear,350,2012-11-02 03:53:00
11:53 PM,34.0,25.0,70,30.04,10.0,North,3.5,-,N/A,,Clear,350,2012-11-02 04:53:00